Weather History for KATT - March, 2013

Change the Weather History Date:

Tuesday, March 5, 2013

  Actual Average Record
Temperature  
Mean Temperature 57 °F 59 °F  
Max Temperature 68 °F 69 °F 91 °F (1991)
Min Temperature 46 °F 49 °F 25 °F (1917)
Degree Days  
Heating Degree Days 8 7  
Month to date heating degree days 39 39  
Since 1 July heating degree days 1060 1376  
Cooling Degree Days 0 1  
Month to date cooling degree days 7 5  
Year to date cooling degree days 56 32  
Growing Degree Days 7 (Base 50)    
Moisture  
Dew Point 23 °F    
Average Humidity 44    
Maximum Humidity 78    
Minimum Humidity 9    
Precipitation  
Precipitation 0.00 in 0.09 in 0.83 in (1958)
Month to date precipitation 0.00 0.43  
Year to date precipitation 3.26 4.67  
Snow  
Snow 0.00 in - - ()
Month to date snowfall 0.0  
Since 1 July snowfall T  
Snow Depth 0.00 in    
Sea Level Pressure  
Sea Level Pressure 30.20 in    
Wind  
Wind Speed 10 mph (North)    
Max Wind Speed 23 mph    
Max Gust Speed 35 mph    
Visibility 10 miles    
Events      
T = Trace of Precipitation, MM = Missing Value Source: NWS Daily Summary

Daily Weather History Graph

Daily Weather History Graph

Search for Another Location

Airport or City:

Trip Planner

Search our weather history database for the weather conditions in past years. The results will help you decide how hot, cold, wet, or windy it might be!

Date:

Astronomy

Mar. 05, 2013 Rise Set
Actual Time 6:52 AM CST 6:32 PM CST
Civil Twilight 6:28 AM CST 6:56 PM CST
Nautical Twilight 6:00 AM CST 7:24 PM CST
Astronomical Twilight 5:32 AM CST 7:52 PM CST
Moon 1:47 AM CST (3/5) 12:31 PM CST (3/5)
Length of Visible Light 12h 28m
Length of Day
11h 40m
Last Quarter, 40% of the Moon is Illuminated
Mar 5
Last Quarter
Mar 11
New
Mar 19
First Quarter
Mar 27
Full
Apr 2
Last Quarter

Hourly Weather History & Observations

Time (CST) Temp. Dew Point Humidity Pressure Visibility Wind Dir Wind Speed Gust Speed Precip Events Conditions
12:51 AM 63.0 °F 55.0 °F 75% 29.76 in 10.0 mi South 5.8 mph - N/A   Clear
1:51 AM 62.1 °F 55.0 °F 78% 29.77 in 10.0 mi SSE 3.5 mph - N/A   Clear
2:51 AM 64.0 °F 55.0 °F 73% 29.87 in 10.0 mi North 9.2 mph 25.3 mph N/A   Scattered Clouds
3:51 AM 55.9 °F 39.9 °F 55% 30.00 in 10.0 mi NNW 13.8 mph 24.2 mph N/A   Clear
4:51 AM 52.0 °F 36.0 °F 54% 30.07 in 10.0 mi NNW 19.6 mph 33.4 mph N/A   Clear
5:51 AM 51.1 °F 34.0 °F 52% 30.12 in 10.0 mi North 16.1 mph 31.1 mph N/A   Partly Cloudy
6:51 AM 51.1 °F 33.1 °F 50% 30.17 in 10.0 mi North 9.2 mph 25.3 mph N/A   Clear
7:51 AM 51.1 °F 32.0 °F 48% 30.21 in 10.0 mi North 17.3 mph 28.8 mph N/A   Clear
8:51 AM 53.1 °F 26.1 °F 35% 30.25 in 10.0 mi North 13.8 mph 31.1 mph N/A   Clear
9:51 AM 55.0 °F 23.0 °F 29% 30.29 in 10.0 mi North 16.1 mph 31.1 mph N/A   Clear
10:51 AM 59.0 °F 19.0 °F 21% 30.29 in 10.0 mi North 13.8 mph 26.5 mph N/A   Clear
11:51 AM 60.1 °F 19.0 °F 20% 30.29 in 10.0 mi North 15.0 mph 24.2 mph N/A   Clear
12:51 PM 63.0 °F 15.1 °F 16% 30.29 in 10.0 mi NNW 11.5 mph 24.2 mph N/A   Clear
1:51 PM 64.9 °F 12.0 °F 13% 30.27 in 10.0 mi North 8.1 mph 23.0 mph N/A   Clear
2:51 PM 66.9 °F 10.9 °F 11% 30.26 in 10.0 mi North 9.2 mph 25.3 mph N/A   Clear
3:51 PM 66.9 °F 10.9 °F 11% 30.26 in 10.0 mi NNW 9.2 mph 24.2 mph N/A   Clear
4:51 PM 64.9 °F 8.1 °F 11% 30.27 in 10.0 mi North 9.2 mph 17.3 mph N/A   Clear
5:51 PM 63.0 °F 3.9 °F 10% 30.29 in 10.0 mi North 8.1 mph 18.4 mph N/A   Clear
6:51 PM 59.0 °F 6.1 °F 12% 30.31 in 10.0 mi NNW 5.8 mph - N/A   Clear
7:51 PM 55.9 °F 8.1 °F 15% 30.32 in 10.0 mi North 4.6 mph - N/A   Clear
8:51 PM 54.0 °F 9.0 °F 17% 30.33 in 10.0 mi North 5.8 mph - N/A   Clear
9:51 PM 51.1 °F 10.9 °F 20% 30.36 in 10.0 mi North 4.6 mph - N/A   Clear
10:51 PM 48.9 °F 12.9 °F 24% 30.38 in 10.0 mi North 5.8 mph - N/A   Clear
11:51 PM 46.9 °F 14.0 °F 27% 30.38 in 10.0 mi Calm Calm - N/A   Clear